This is the latest recevied weather packets stored in our database for station/object KD7AWQ. If no packets are shown the sender has not sent any weather packets the latest 1 day(s).
| Time | Temp. | Humidity | Pressure | Rain* | Wind** | Luminosity | Snow |
|---|---|---|---|---|---|---|---|
| 1778057468 | 11.67° C | 47% | 1183.6 hPa | 0 mm | 1.79 m/s, 260° | 0 W/m² | - |
| 1778057165 | 11.67° C | 46% | 1183.7 hPa | 0 mm | 0.45 m/s, 219° | 0 W/m² | - |
| 1778056861 | 12.22° C | 46% | 1183.7 hPa | 0 mm | 0.45 m/s, 218° | 0 W/m² | - |
| 1778056558 | 11.67° C | 46% | 1183.7 hPa | 0 mm | 0.45 m/s, 221° | 0 W/m² | - |
| 1778056255 | 11.11° C | 48% | 1183.5 hPa | 0 mm | 1.79 m/s, 259° | 0 W/m² | - |
| 1778055952 | 11.11° C | 51% | 1183.9 hPa | 0 mm | 1.79 m/s, 242° | 0 W/m² | - |
| 1778055648 | 10.56° C | 52% | 1183.8 hPa | 0 mm | 1.34 m/s, 219° | 0 W/m² | - |
| 1778055346 | 10.56° C | 53% | 1183.6 hPa | 0 mm | 2.24 m/s, 243° | 0 W/m² | - |
| 1778055043 | 10.56° C | 53% | 1183.7 hPa | 0 mm | 2.24 m/s, 244° | 0 W/m² | - |
| 1778054741 | 10° C | 56% | 1183.7 hPa | 0 mm | 2.68 m/s, 272° | 0 W/m² | - |
| 1778054438 | 10.56° C | 54% | 1183.6 hPa | 0 mm | 4.02 m/s, 248° | 0 W/m² | - |
| 1778054136 | 11.11° C | 53% | 1183.7 hPa | 0 mm | 3.13 m/s, 239° | 0 W/m² | - |
| 1778053832 | 11.67° C | 51% | 1183.6 hPa | 0 mm | 2.68 m/s, 205° | 0 W/m² | - |
| 1778053530 | 11.11° C | 51% | 1183.7 hPa | 0 mm | 2.24 m/s, 197° | 0 W/m² | - |
| 1778053227 | 10.56° C | 54% | 1183.5 hPa | 0 mm | 2.24 m/s, 210° | 0 W/m² | - |
| 1778052924 | 11.11° C | 55% | 1183.9 hPa | 0 mm | 1.34 m/s, 184° | 0 W/m² | - |
| 1778052621 | 11.11° C | 53% | 1183.7 hPa | 0 mm | 2.68 m/s, 180° | 0 W/m² | - |
| 1778052319 | 10.56° C | 54% | 1183.7 hPa | 0 mm | 2.68 m/s, 154° | 0 W/m² | - |
| 1778052016 | 11.67° C | 52% | 1183.6 hPa | 0 mm | 1.79 m/s, 158° | 0 W/m² | - |
| 1778051715 | 11.11° C | 52% | 1183.7 hPa | 0 mm | 1.79 m/s, 147° | 0 W/m² | - |
| 1778051411 | 11.11° C | 51% | 1183.5 hPa | 0 mm | 0.89 m/s, 151° | 0 W/m² | - |
| 1778051108 | 11.11° C | 52% | 1183.6 hPa | 0 mm | 1.34 m/s, 145° | 0 W/m² | - |
| 1778050805 | 11.67° C | 50% | 1183.6 hPa | 0 mm | 1.34 m/s, 177° | 0 W/m² | - |
| 1778050503 | 11.67° C | 51% | 1183.2 hPa | 0 mm | 1.34 m/s, 242° | 0 W/m² | - |
| 1778050199 | 11.67° C | 52% | 1183.5 hPa | 0 mm | 1.34 m/s, 204° | 0 W/m² | - |
* Rain latest hour (hover to see other rain measurements)
** Current wind speed in m/s (hover to see current wind gust speed)